Location: Newark
(45.2500°N, 7.5833°E)
Time: 07:23:27
(UTC+00:00)

Tiros 1 despin weight - Pass Details

Date: 27 January 2020
Orbit: 594 x 642 km, 48.2° (Epoch: 18 February)

Event Time Altitude Azimuth Distance (km) Brightness Sun altitude
Rises 13:33:44 0° 284° (WNW) 2,887 ? 21.4°
Reaches altitude 10° 13:36:03 10° 287° (WNW) 1,989 ? 21.2°
Maximum altitude 13:40:36 65° 10° (N) 690 ? 20.8°
Drops below altitude 10° 13:45:13 10° 93° (E) 2,015 ? 20.4°
Sets 13:47:35 0° 96° (E) 2,928 ? 20.2°
